User: anonymous   Login
Location: Unspecified
(0.0000°N, 0.0000°E)
Time: 15:27:17
(UTC+00:00)
Language:

IDEFIX/ARIANE 42P - Orbit

View from above orbital plane
View from above orbital plane
View from above satellite
View from above satellite

Ground track
Ground track

The orbit data is extracted from the following two-line orbital elements,

1 27422U 02021B   18345.01023812 -.00000026  00000-0  59963-5 0  9996
2 27422  98.2767 321.5120 0013386  72.4916 287.7729 14.29266498864070
Epoch (UTC): 11 December 2018 00:14:44
Eccentricity: 0.0013386
inclination: 98.2767°
perigee height: 784 km
apogee height: 804 km
right ascension of ascending node: 321.5120°
argument of perigee: 72.4916°
revolutions per day: 14.29266498
mean anomaly at epoch: 287.7729°
orbit number at epoch: 86407

The dashed part of the orbit path shows where the satellite is in the earth's shadow,  

DLR